EW6070 Athens GR current weather conditions

sailwx.info

Wind from 329 at 0 knots

Air temperature 26.1° C
Dewpoint 8.1° C

Last reported at 2020-Aug-15 03:45 UTC.
Time now 2020-Aug-15 04:19 UTC

Location: N 37°55' E 023°43'.
View on Google Maps.

See reports from other nearby stations

  
Tides and Currents Weather Stations Pressure Air Temp Water Temp Dewpoint Dewpoint Depression Visibility Wind Speed Wind Dir Waves Ship Positions
date/time (UTC)wind fromknots sea level pressurealtimeterstation pressurevisibilityair tempwater tempwave heightnotes
2020-Aug-15 03:45 329 0 26.1
2020-Aug-15 03:31 003 1 26.1
2020-Aug-15 03:16 042 1 26.1
2020-Aug-15 03:01 352 1 25.6
2020-Aug-15 02:46 308 0 25.6
2020-Aug-15 02:31 333 2 25.6
2020-Aug-15 02:15 342 2 25.6
2020-Aug-15 02:01 337 2 26.1
2020-Aug-15 01:46 320 2 26.1
2020-Aug-15 01:31 308 1 26.1
2020-Aug-15 01:16 315 26.1
2020-Aug-15 01:01 320 1 26.1
2020-Aug-15 00:46 294 1 26.7
2020-Aug-15 00:32 315 2 26.7
2020-Aug-15 00:16 301 1 26.7
2020-Aug-15 00:01 322 26.7
2020-Aug-14 23:45 328 0 26.7
2020-Aug-14 23:30 350 0 26.7
2020-Aug-14 23:15 337 1 26.7
2020-Aug-14 23:00 323 1 27.2
2020-Aug-14 22:45 350 2 27.2
2020-Aug-14 22:30 296 3 27.2
2020-Aug-14 22:16 320 1 27.2
2020-Aug-14 22:01 316 1 27.2
2020-Aug-14 21:45 359 0 27.2
2020-Aug-14 21:30 316 27.2
2020-Aug-14 21:15 244 27.2
2020-Aug-14 21:00 244 27.2
2020-Aug-14 20:45 244 27.8
2020-Aug-14 20:30 325 0 27.8
2020-Aug-14 20:15 272 1 27.8
2020-Aug-14 20:00 263 0 27.8
2020-Aug-14 19:45 001 0 28.3
2020-Aug-14 19:30 28.3
2020-Aug-14 19:16 003 1 28.3
2020-Aug-14 19:00 335 28.3
2020-Aug-14 18:45 336 0 28.9
2020-Aug-14 18:30 013 1 28.9
2020-Aug-14 18:15 326 2 29.4
2020-Aug-14 18:00 352 1 29.4
2020-Aug-14 17:45 322 1 29.4
2020-Aug-14 17:30 051 2 29.4
2020-Aug-14 17:15 035 4 30.0
2020-Aug-14 17:00 359 2 30.6
2020-Aug-14 16:45 065 3 31.1
2020-Aug-14 16:31 275 3 31.1
2020-Aug-14 16:15 011 3 31.7
2020-Aug-14 16:00 071 3 31.7
2020-Aug-14 15:45 357 5 31.7
2020-Aug-14 15:30 356 5 31.7
2020-Aug-14 15:15 066 6 32.2
2020-Aug-14 15:00 045 6 32.2
2020-Aug-14 14:45 340 5 32.2
2020-Aug-14 14:30 357 6 32.2
2020-Aug-14 14:15 32.2
2020-Aug-14 14:00 020 5 32.2
2020-Aug-14 13:45 323 5 32.2
2020-Aug-14 13:30 32.2
2020-Aug-14 13:15 356 6 32.2
2020-Aug-14 13:00 32.2
2020-Aug-14 12:45 069 6 32.2
2020-Aug-14 12:30 32.2
2020-Aug-14 12:15 040 6 31.7
2020-Aug-14 12:00 339 5 32.2
2020-Aug-14 11:45 035 4 32.2
2020-Aug-14 11:30 065 3 32.2
2020-Aug-14 11:15 059 4 32.2
2020-Aug-14 11:00 330 3 32.2
2020-Aug-14 10:47 013 4 31.7
2020-Aug-14 10:32 31.7
2020-Aug-14 10:16 059 5 31.7
2020-Aug-14 10:01 025 6 31.1
2020-Aug-14 09:46 013 6 31.1
2020-Aug-14 09:31 330 6 30.6
2020-Aug-14 09:17 357 5 30.6
2020-Aug-14 09:01 044 5 30.6
2020-Aug-14 08:46 047 5 30.0
2020-Aug-14 08:30 086 6 30.0
2020-Aug-14 08:16 042 6 30.0
2020-Aug-14 08:00 089 4 30.0
2020-Aug-14 07:46 006 6 30.0
2020-Aug-14 07:32 010 3 30.0
2020-Aug-14 07:15 251 3 29.4
2020-Aug-14 07:00 065 2 28.3
2020-Aug-14 06:45 254 1 28.3
2020-Aug-14 06:30 308 3 27.8
2020-Aug-14 06:15 295 3 27.2
2020-Aug-14 06:00 287 2 27.2
2020-Aug-14 05:45 282 3 27.2
2020-Aug-14 05:31 267 2 26.7
2020-Aug-14 05:15 308 2 26.1
2020-Aug-14 05:00 288 2 26.1
2020-Aug-14 04:46 274 2 26.1
2020-Aug-14 04:30 335 25.6
2020-Aug-14 04:16 340 0 25.6
2020-Aug-14 04:00 339 0 25.6
2020-Aug-14 03:45 298 1 25.6
2020-Aug-14 03:31 289 25.6
2020-Aug-14 03:15 356 25.6
2020-Aug-14 03:00 350 1 26.1
2020-Aug-14 02:45 316 1 26.1
2020-Aug-14 02:30 359 0 26.1
2020-Aug-14 02:15 339 0 26.1
2020-Aug-14 02:00 326 2 26.1
2020-Aug-14 01:45 313 1 26.1
2020-Aug-14 01:30 305 26.1
2020-Aug-14 01:16 323 1 26.7
2020-Aug-14 01:00 340 2 26.7
2020-Aug-14 00:45 006 1 26.7
2020-Aug-14 00:30 26.7
2020-Aug-14 00:15 329 1 26.7
2020-Aug-14 00:00 356 26.7
2020-Aug-13 23:00 322 0 27.2
2020-Aug-13 22:45 315 1 27.2
2020-Aug-13 22:30 313 0 27.2
2020-Aug-13 22:15 010 27.2
2020-Aug-13 22:00 010 27.2
2020-Aug-13 21:45 27.2
2020-Aug-13 21:30 025 0 27.8
2020-Aug-13 21:15 359 0 27.8
2020-Aug-13 21:00 030 0 27.8
2020-Aug-13 20:45 083 2 27.8
2020-Aug-13 20:30 028 0 28.3
2020-Aug-13 20:15 021 0 28.3
2020-Aug-13 20:00 003 2 28.3
2020-Aug-13 19:45 352 2 28.3
2020-Aug-13 19:31 052 2 28.3
2020-Aug-13 19:16 071 2 28.9
2020-Aug-13 19:01 359 1 28.9
2020-Aug-13 18:47 28.9
2020-Aug-13 18:31 291 3 29.4
2020-Aug-13 18:18 049 2 29.4
2020-Aug-13 18:01 020 1 29.4
2020-Aug-13 17:46 304 3 30.0
2020-Aug-13 17:31 109 2 30.0
2020-Aug-13 17:16 041 4 30.0
2020-Aug-13 17:01 061 4 30.6
2020-Aug-13 16:46 048 4 31.1
2020-Aug-13 16:31 352 4 31.1
2020-Aug-13 16:17 356 4 31.7
2020-Aug-13 16:02 028 3 31.7
2020-Aug-13 15:47 037 5 31.7
2020-Aug-13 15:32 032 4 32.2
2020-Aug-13 15:16 032 5 32.2
2020-Aug-13 15:01 32.8
2020-Aug-13 14:46 056 4 32.8
2020-Aug-13 14:32 008 4 32.8
2020-Aug-13 14:16 333 3 33.3
2020-Aug-13 14:01 340 2 32.8
2020-Aug-13 13:45 32.8
2020-Aug-13 13:30 073 2 33.3
2020-Aug-13 13:17 278 4 33.3
2020-Aug-13 13:01 037 3 32.8
2020-Aug-13 12:46 023 3 32.8
2020-Aug-13 12:30 32.8
2020-Aug-13 12:16 069 4 32.8
2020-Aug-13 12:00 054 4 32.8
2020-Aug-13 11:46 059 3 32.8
2020-Aug-13 11:31 320 4 32.8
2020-Aug-13 11:16 041 3 32.8
2020-Aug-13 11:00 335 2 32.8
2020-Aug-13 10:46 342 4 32.2
2020-Aug-13 10:31 356 4 32.2
2020-Aug-13 10:15 054 4 32.2
2020-Aug-13 10:01 008 4 32.2
2020-Aug-13 09:46 056 5 31.7
2020-Aug-13 09:30 064 5 31.7
2020-Aug-13 09:16 339 4 31.7
2020-Aug-13 09:01 034 2 31.7
2020-Aug-13 08:47 335 1 31.7
2020-Aug-13 08:31 31.1
2020-Aug-13 08:15 267 5 31.1
2020-Aug-13 08:01 340 3 30.6
2020-Aug-13 07:45 311 1 30.0
2020-Aug-13 07:30 243 2 30.0
2020-Aug-13 07:15 272 2 29.4
2020-Aug-13 07:00 261 0 29.4
2020-Aug-13 06:45 275 1 28.9
2020-Aug-13 06:30 328 1 28.3
2020-Aug-13 06:15 254 1 28.3
2020-Aug-13 06:00 251 0 28.3
2020-Aug-13 05:45 344 0 28.3
2020-Aug-13 05:30 011 0 28.3
2020-Aug-13 05:15 357 1 27.8
2020-Aug-13 04:45 342 0 27.2
2020-Aug-13 04:30 322 0 26.7
2020-Aug-13 04:15 008 0 26.1
2020-Aug-13 04:00 329 26.1